• în România
  • Lista ţărilor
  • Pe 7 zile
  • Temperatura apei
  • Hartă satelitară
  • Meteo pe hartă
  • Widget-uri
  • user-avatar
    Intrare

    Meteo pe oră la Rusanovo

    Astăzi, 20 Aprilie, Vineri

    Timp Temperatura Precipitaţii Vânt Presiune Umiditate
    00:00 +6°C° 0 mm 4 m/s 749 mmHg 88%
    01:00 +5°C° 0 mm 3 m/s 749 mmHg 90%
    02:00 +5°C° 0 mm 3 m/s 749 mmHg 92%
    03:00 +5°C° 0 mm 3 m/s 749 mmHg 93%
    04:00 +4°C° 0 mm 3 m/s 750 mmHg 95%
    05:00 +4°C° 0 mm 3 m/s 750 mmHg 96%
    06:00 +5°C° 0 mm 3 m/s 750 mmHg 94%
    07:00 +5°C° 0 mm 3 m/s 750 mmHg 91%
    08:00 +7°C° 0 mm 3 m/s 750 mmHg 89%
    09:00 +8°C° 0 mm 3 m/s 750 mmHg 83%
    10:00 +9°C° 0 mm 3 m/s 750 mmHg 77%
    11:00 +11°C° 0 mm 3 m/s 750 mmHg 71%
    12:00 +12°C° 0 mm 3 m/s 750 mmHg 66%
    13:00 +13°C° 0 mm 3 m/s 750 mmHg 60%
    14:00 +14°C° 0 mm 3 m/s 750 mmHg 55%
    15:00 +15°C° 0 mm 2 m/s 749 mmHg 55%
    16:00 +15°C° 0 mm 2 m/s 749 mmHg 55%
    17:00 +15°C° 0 mm 2 m/s 748 mmHg 54%
    18:00 +14°C° 0 mm 2 m/s 748 mmHg 61%
    19:00 +12°C° 0 mm 2 m/s 747 mmHg 68%
    20:00 +9°C° 0 mm 2 m/s 747 mmHg 75%
    21:00 +9°C° 0 mm 2 m/s 746 mmHg 75%
    22:00 +9°C° 0 mm 3 m/s 745 mmHg 74%
    23:00 +9°C° 0 mm 3 m/s 745 mmHg 74%

    Mâine, 21 Aprilie, Sâmbătă

    Timp Temperatura Precipitaţii Vânt Presiune Umiditate
    00:00 +9°C° 0 mm 3 m/s 744 mmHg 78%
    01:00 +8°C° 0 mm 4 m/s 743 mmHg 81%
    02:00 +10°C° 0 mm 4 m/s 742 mmHg 85%
    03:00 +8°C° 0 mm 4 m/s 741 mmHg 87%
    04:00 +8°C° 0 mm 4 m/s 740 mmHg 88%
    05:00 +8°C° 0 mm 4 m/s 739 mmHg 90%
    06:00 +9°C° 0 mm 5 m/s 738 mmHg 86%
    07:00 +10°C° 0 mm 5 m/s 737 mmHg 81%
    08:00 +13°C° 0 mm 6 m/s 736 mmHg 77%
    09:00 +13°C° 0,1 mm 6 m/s 736 mmHg 77%
    10:00 +13°C° 0,1 mm 6 m/s 735 mmHg 77%
    11:00 +14°C° 0,1 mm 6 m/s 734 mmHg 77%
    12:00 +14°C° 0,3 mm 7 m/s 734 mmHg 71%
    13:00 +12°C° 0,3 mm 8 m/s 734 mmHg 65%
    14:00 +12°C° 0,3 mm 9 m/s 734 mmHg 59%
    15:00 +11°C° 0 mm 8 m/s 735 mmHg 59%
    16:00 +10°C° 0 mm 7 m/s 736 mmHg 60%
    17:00 +9°C° 0 mm 6 m/s 736 mmHg 61%
    18:00 +9°C° 0,1 mm 6 m/s 736 mmHg 63%
    19:00 +8°C° 0,1 mm 5 m/s 737 mmHg 66%
    20:00 +7°C° 0,1 mm 5 m/s 737 mmHg 69%
    21:00 +7°C° 0 mm 5 m/s 737 mmHg 70%
    22:00 +6°C° 0 mm 5 m/s 737 mmHg 71%
    23:00 +6°C° 0 mm 5 m/s 738 mmHg 72%

    Poimâine, 22 Aprilie, Duminică

    Timp Temperatura Precipitaţii Vânt Presiune Umiditate
    00:00 +6°C° 0 mm 5 m/s 738 mmHg 73%
    01:00 +5°C° 0 mm 5 m/s 738 mmHg 74%
    02:00 +5°C° 0 mm 5 m/s 738 mmHg 74%
    03:00 +5°C° 0 mm 5 m/s 738 mmHg 76%
    04:00 +5°C° 0 mm 5 m/s 738 mmHg 77%
    05:00 +5°C° 0 mm 5 m/s 738 mmHg 78%
    06:00 +5°C° 0,1 mm 5 m/s 739 mmHg 77%
    07:00 +5°C° 0,1 mm 5 m/s 739 mmHg 76%
    08:00 +6°C° 0,1 mm 5 m/s 739 mmHg 75%
    09:00 +6°C° 0,1 mm 5 m/s 739 mmHg 73%
    10:00 +7°C° 0,1 mm 5 m/s 740 mmHg 70%
    11:00 +7°C° 0,1 mm 5 m/s 740 mmHg 67%
    12:00 +8°C° 0,3 mm 5 m/s 740 mmHg 65%
    13:00 +8°C° 0,3 mm 5 m/s 740 mmHg 63%
    14:00 +9°C° 0,3 mm 5 m/s 740 mmHg 62%
    15:00 +8°C° 0,4 mm 4 m/s 740 mmHg 65%
    16:00 +8°C° 0,4 mm 4 m/s 740 mmHg 69%
    17:00 +7°C° 0,4 mm 4 m/s 740 mmHg 72%
    18:00 +7°C° 0,1 mm 3 m/s 741 mmHg 77%
    19:00 +6°C° 0,1 mm 2 m/s 741 mmHg 83%
    20:00 +5°C° 0,1 mm 2 m/s 741 mmHg 88%
    21:00 +4°C° 0 mm 2 m/s 742 mmHg 89%
    22:00 +5°C° 0 mm 1 m/s 742 mmHg 91%
    23:00 +4°C° 0 mm 1 m/s 742 mmHg 92%

    23 Aprilie, Luni

    Timp Temperatura Precipitaţii Vânt Presiune Umiditate
    00:00 +4°C° 0 mm 1 m/s 743 mmHg 92%
    01:00 +3°C° 0 mm 1 m/s 743 mmHg 92%
    02:00 +3°C° 0 mm 1 m/s 743 mmHg 93%
    03:00 +2°C° 0 mm 1 m/s 744 mmHg 92%
    04:00 +2°C° 0 mm 1 m/s 744 mmHg 91%
    05:00 +1°C° 0 mm 1 m/s 744 mmHg 91%
    06:00 +3°C° 0 mm 1 m/s 744 mmHg 83%
    07:00 +4°C° 0 mm 1 m/s 745 mmHg 74%
    08:00 +6°C° 0 mm 1 m/s 745 mmHg 66%
    09:00 +7°C° 0 mm 1 m/s 745 mmHg 59%
    10:00 +7°C° 0 mm 2 m/s 745 mmHg 52%
    11:00 +8°C° 0 mm 2 m/s 745 mmHg 44%
    12:00 +9°C° 0 mm 2 m/s 745 mmHg 41%
    13:00 +9°C° 0 mm 2 m/s 745 mmHg 38%
    14:00 +10°C° 0 mm 2 m/s 745 mmHg 35%
    15:00 +10°C° 0 mm 2 m/s 745 mmHg 36%
    16:00 +9°C° 0 mm 2 m/s 744 mmHg 37%
    17:00 +9°C° 0 mm 2 m/s 744 mmHg 38%
    18:00 +7°C° 0 mm 2 m/s 744 mmHg 44%
    19:00 +7°C° 0 mm 1 m/s 744 mmHg 50%
    20:00 +5°C° 0 mm 1 m/s 744 mmHg 57%
    21:00 +4°C° 0 mm 1 m/s 744 mmHg 59%
    22:00 +3°C° 0 mm 2 m/s 744 mmHg 61%
    23:00 +2°C° 0 mm 2 m/s 744 mmHg 63%

    24 Aprilie, Marţi

    Timp Temperatura Precipitaţii Vânt Presiune Umiditate
    00:00 +2°C° 0 mm 2 m/s 744 mmHg 65%
    01:00 +1°C° 0 mm 2 m/s 744 mmHg 67%
    02:00 +1°C° 0 mm 2 m/s 743 mmHg 69%
    03:00 +1°C° 0 mm 2 m/s 743 mmHg 70%
    04:00 +1°C° 0 mm 2 m/s 743 mmHg 72%
    05:00 +1°C° 0 mm 2 m/s 743 mmHg 73%
    06:00 +1°C° 0 mm 3 m/s 742 mmHg 69%
    07:00 +3°C° 0 mm 3 m/s 742 mmHg 64%
    08:00 +5°C° 0 mm 3 m/s 741 mmHg 60%
    09:00 +6°C° 0 mm 4 m/s 741 mmHg 56%
    10:00 +7°C° 0 mm 4 m/s 741 mmHg 52%
    11:00 +10°C° 0 mm 4 m/s 741 mmHg 48%
    12:00 +10°C° 0,1 mm 4 m/s 740 mmHg 49%
    13:00 +10°C° 0,1 mm 4 m/s 740 mmHg 50%
    14:00 +10°C° 0,1 mm 4 m/s 740 mmHg 52%
    15:00 +8°C° 0,3 mm 4 m/s 740 mmHg 58%
    16:00 +8°C° 0,3 mm 4 m/s 739 mmHg 65%
    17:00 +8°C° 0,3 mm 3 m/s 739 mmHg 71%
    18:00 +7°C° 0,2 mm 3 m/s 739 mmHg 76%
    19:00 +7°C° 0,2 mm 3 m/s 739 mmHg 80%
    20:00 +5°C° 0,2 mm 3 m/s 739 mmHg 85%
    21:00 +5°C° 0,1 mm 3 m/s 739 mmHg 87%
    22:00 +6°C° 0,1 mm 2 m/s 739 mmHg 89%
    23:00 +6°C° 0,1 mm 2 m/s 739 mmHg 91%

    25 Aprilie, Miercuri

    Timp Temperatura Precipitaţii Vânt Presiune Umiditate
    00:00 +6°C° 0,1 mm 2 m/s 739 mmHg 92%
    01:00 +6°C° 0,1 mm 2 m/s 739 mmHg 93%
    02:00 +6°C° 0,1 mm 2 m/s 739 mmHg 93%
    03:00 +6°C° 0,1 mm 2 m/s 739 mmHg 93%
    04:00 +6°C° 0,1 mm 2 m/s 739 mmHg 93%
    05:00 +5°C° 0,1 mm 2 m/s 739 mmHg 93%
    06:00 +5°C° 0 mm 3 m/s 739 mmHg 91%
    07:00 +5°C° 0 mm 3 m/s 739 mmHg 88%
    08:00 +7°C° 0 mm 3 m/s 740 mmHg 86%
    09:00 +7°C° 0 mm 3 m/s 740 mmHg 83%
    10:00 +8°C° 0 mm 3 m/s 740 mmHg 79%
    11:00 +9°C° 0 mm 3 m/s 740 mmHg 76%
    12:00 +10°C° 0 mm 3 m/s 740 mmHg 71%
    13:00 +11°C° 0 mm 3 m/s 740 mmHg 66%
    14:00 +12°C° 0 mm 3 m/s 739 mmHg 61%
    15:00 +12°C° 0 mm 3 m/s 739 mmHg 61%
    16:00 +12°C° 0 mm 3 m/s 738 mmHg 62%
    17:00 +12°C° 0 mm 3 m/s 738 mmHg 62%
    18:00 +11°C° 0,4 mm 4 m/s 737 mmHg 69%
    19:00 +10°C° 0,4 mm 4 m/s 736 mmHg 77%
    20:00 +8°C° 0,4 mm 4 m/s 736 mmHg 84%
    21:00 +8°C° 0,8 mm 4 m/s 735 mmHg 86%
    22:00 +8°C° 0,8 mm 4 m/s 735 mmHg 88%
    23:00 +9°C° 0,8 mm 5 m/s 734 mmHg 90%
    Arată mai mult